Year,Month,Day,Hour,Minute,Value (Times are PST for windspeed in km/hr)
2016,06,30,00,00,14.30
2016,06,30,00,01,15.30
2016,06,30,00,02,19.00
2016,06,30,00,03,19.20
2016,06,30,00,04,23.40
2016,06,30,00,05,16.20
2016,06,30,00,06,14.90
2016,06,30,00,07,18.70
2016,06,30,00,08,15.30
2016,06,30,00,09,18.20
2016,06,30,00,10,16.50
2016,06,30,00,11,15.50
2016,06,30,00,12,20.80
2016,06,30,00,13,15.00
2016,06,30,00,14,18.90
2016,06,30,00,15,16.20
2016,06,30,00,16,18.80
2016,06,30,00,17,18.40
2016,06,30,00,18,17.30
2016,06,30,00,19,14.00
2016,06,30,00,20,16.50
2016,06,30,00,21,22.50
2016,06,30,00,22,16.80
2016,06,30,00,23,16.00
2016,06,30,00,24,14.00
2016,06,30,00,25,17.50
2016,06,30,00,26,18.10
2016,06,30,00,27,21.70
2016,06,30,00,28,14.50
2016,06,30,00,29,12.60
2016,06,30,00,30,18.50
2016,06,30,00,31,14.10
2016,06,30,00,32,13.70
2016,06,30,00,33,15.00
2016,06,30,00,34,14.20
2016,06,30,00,35,15.50
2016,06,30,00,36,13.90
2016,06,30,00,37,19.60
2016,06,30,00,38,15.50
2016,06,30,00,39,9.30
2016,06,30,00,40,13.80
2016,06,30,00,41,22.00
2016,06,30,00,42,15.60
2016,06,30,00,43,15.60
2016,06,30,00,44,15.50
2016,06,30,00,45,20.60
2016,06,30,00,46,20.90
2016,06,30,00,47,17.70
2016,06,30,00,48,23.80
2016,06,30,00,49,14.30
2016,06,30,00,50,14.30
2016,06,30,00,51,15.20
2016,06,30,00,52,19.20
2016,06,30,00,53,14.90
2016,06,30,00,54,15.90
2016,06,30,00,55,14.70
2016,06,30,00,56,10.80
2016,06,30,00,57,13.10
2016,06,30,00,58,12.00
2016,06,30,00,59,11.00
2016,06,30,01,00,12.50
2016,06,30,01,01,11.30
2016,06,30,01,02,14.70
2016,06,30,01,03,16.20
2016,06,30,01,04,17.00
2016,06,30,01,05,15.70
2016,06,30,01,06,14.20
2016,06,30,01,07,16.50
2016,06,30,01,08,18.20
2016,06,30,01,09,14.20
2016,06,30,01,10,19.80
2016,06,30,01,11,14.80
2016,06,30,01,12,16.40
2016,06,30,01,13,15.20
2016,06,30,01,14,11.60
2016,06,30,01,15,11.70
2016,06,30,01,16,12.60
2016,06,30,01,17,10.80
2016,06,30,01,18,14.80
2016,06,30,01,19,15.80
2016,06,30,01,20,13.40
2016,06,30,01,21,12.20
2016,06,30,01,22,9.60
2016,06,30,01,23,9.30
2016,06,30,01,24,14.60
2016,06,30,01,25,11.40
2016,06,30,01,26,14.60
2016,06,30,01,27,9.40
2016,06,30,01,28,9.30
2016,06,30,01,29,10.10
2016,06,30,01,30,5.30
2016,06,30,01,31,5.60
2016,06,30,01,32,12.30
2016,06,30,01,33,14.20
2016,06,30,01,34,11.50
2016,06,30,01,35,16.90
2016,06,30,01,36,7.80
2016,06,30,01,37,9.40
2016,06,30,01,38,11.60
2016,06,30,01,39,13.00
2016,06,30,01,40,8.90
2016,06,30,01,41,5.50
2016,06,30,01,42,3.20
2016,06,30,01,43,2.30
2016,06,30,01,44,5.40
2016,06,30,01,45,15.50
2016,06,30,01,46,10.40
2016,06,30,01,47,3.30
2016,06,30,01,48,10.90
2016,06,30,01,49,5.70
2016,06,30,01,50,5.90
2016,06,30,01,51,11.90
2016,06,30,01,52,8.00
2016,06,30,01,53,9.30
2016,06,30,01,54,7.90
2016,06,30,01,55,10.10
2016,06,30,01,56,2.10
2016,06,30,01,57,11.70
2016,06,30,01,58,12.50
2016,06,30,01,59,11.40
2016,06,30,02,00,15.40
2016,06,30,02,01,17.50
2016,06,30,02,02,9.00
2016,06,30,02,03,11.60
2016,06,30,02,04,13.80
2016,06,30,02,05,11.20
2016,06,30,02,06,7.20
2016,06,30,02,07,9.80
2016,06,30,02,08,9.70
2016,06,30,02,09,5.90
2016,06,30,02,10,4.10
2016,06,30,02,11,6.10
2016,06,30,02,12,8.00
2016,06,30,02,13,8.90
2016,06,30,02,14,11.00
2016,06,30,02,15,7.20
2016,06,30,02,16,18.10
2016,06,30,02,17,14.30
2016,06,30,02,18,10.50
2016,06,30,02,19,9.90
2016,06,30,02,20,12.60
2016,06,30,02,21,12.60
2016,06,30,02,22,11.30
2016,06,30,02,23,12.60
2016,06,30,02,24,10.00
2016,06,30,02,25,12.40
2016,06,30,02,26,11.50
2016,06,30,02,27,11.80
2016,06,30,02,28,15.20
2016,06,30,02,29,10.20
2016,06,30,02,30,11.20
2016,06,30,02,31,13.20
2016,06,30,02,32,11.30
2016,06,30,02,33,13.10
2016,06,30,02,34,14.30
2016,06,30,02,35,12.30
2016,06,30,02,36,11.00
2016,06,30,02,37,12.70
2016,06,30,02,38,13.50
2016,06,30,02,39,11.80
2016,06,30,02,40,10.00
2016,06,30,02,41,12.60
2016,06,30,02,42,12.70
2016,06,30,02,43,14.50
2016,06,30,02,44,17.40
2016,06,30,02,45,18.70
2016,06,30,02,46,11.40
2016,06,30,02,47,11.60
2016,06,30,02,48,13.80
2016,06,30,02,49,9.50
2016,06,30,02,50,13.90
2016,06,30,02,51,12.50
2016,06,30,02,52,9.00
2016,06,30,02,53,11.80
2016,06,30,02,54,15.50
2016,06,30,02,55,12.50
2016,06,30,02,56,11.00
2016,06,30,02,57,16.70
2016,06,30,02,58,18.50
2016,06,30,02,59,15.60
2016,06,30,03,00,15.60
2016,06,30,03,01,12.40
2016,06,30,03,02,19.20
2016,06,30,03,03,16.30
2016,06,30,03,04,17.10
2016,06,30,03,05,13.20
2016,06,30,03,06,17.70
2016,06,30,03,07,17.20
2016,06,30,03,08,18.60
2016,06,30,03,09,21.50
2016,06,30,03,10,16.30
2016,06,30,03,11,15.70
2016,06,30,03,12,14.70
2016,06,30,03,13,17.20
2016,06,30,03,14,17.40
2016,06,30,03,15,16.00
2016,06,30,03,16,14.80
2016,06,30,03,17,12.60
2016,06,30,03,18,19.30
2016,06,30,03,19,11.50
2016,06,30,03,20,14.10
2016,06,30,03,21,15.00
2016,06,30,03,22,14.30
2016,06,30,03,23,14.60
2016,06,30,03,24,14.00
2016,06,30,03,25,15.80
2016,06,30,03,26,17.90
2016,06,30,03,27,12.60
2016,06,30,03,28,14.80
2016,06,30,03,29,10.00
2016,06,30,03,30,15.50
2016,06,30,03,31,14.90
2016,06,30,03,32,11.10
2016,06,30,03,33,9.30
2016,06,30,03,34,8.20
2016,06,30,03,35,16.20
2016,06,30,03,36,11.50
2016,06,30,03,37,11.20
2016,06,30,03,38,13.90
2016,06,30,03,39,12.90
2016,06,30,03,40,11.70
2016,06,30,03,41,13.60
2016,06,30,03,42,13.00
2016,06,30,03,43,15.30
2016,06,30,03,44,11.30
2016,06,30,03,45,11.30
2016,06,30,03,46,15.90
2016,06,30,03,47,14.20
2016,06,30,03,48,8.20
2016,06,30,03,49,12.60
2016,06,30,03,50,5.20
2016,06,30,03,51,8.30
2016,06,30,03,52,7.00
2016,06,30,03,53,8.20
2016,06,30,03,54,8.00
2016,06,30,03,55,10.10
2016,06,30,03,56,11.60
2016,06,30,03,57,13.30
2016,06,30,03,58,13.40
2016,06,30,03,59,14.60
2016,06,30,04,00,10.70
2016,06,30,04,01,12.30
2016,06,30,04,02,11.50
2016,06,30,04,03,18.70
2016,06,30,04,04,16.40
2016,06,30,04,05,14.20
2016,06,30,04,06,8.80
2016,06,30,04,07,14.80
2016,06,30,04,08,17.80
2016,06,30,04,09,15.50
2016,06,30,04,10,14.90
2016,06,30,04,11,16.00
2016,06,30,04,12,14.90
2016,06,30,04,13,15.30
2016,06,30,04,14,17.70
2016,06,30,04,15,19.00
2016,06,30,04,16,10.10
2016,06,30,04,17,9.60
2016,06,30,04,18,16.80
2016,06,30,04,19,17.90
2016,06,30,04,20,19.30
2016,06,30,04,21,14.70
2016,06,30,04,22,13.20
2016,06,30,04,23,16.50
2016,06,30,04,24,14.60
2016,06,30,04,25,14.30
2016,06,30,04,26,12.60
2016,06,30,04,27,17.10
2016,06,30,04,28,13.90
2016,06,30,04,29,14.20
2016,06,30,04,30,17.50
2016,06,30,04,31,19.90
2016,06,30,04,32,16.30
2016,06,30,04,33,20.50
2016,06,30,04,34,13.20
2016,06,30,04,35,14.90
2016,06,30,04,36,19.70
2016,06,30,04,37,17.00
2016,06,30,04,38,16.30
2016,06,30,04,39,14.10
2016,06,30,04,40,16.90
2016,06,30,04,41,13.20
2016,06,30,04,42,14.70
2016,06,30,04,43,12.30
2016,06,30,04,44,14.00
2016,06,30,04,45,13.80
2016,06,30,04,46,14.20
2016,06,30,04,47,17.90
2016,06,30,04,48,18.10
2016,06,30,04,49,14.90
2016,06,30,04,50,12.30
2016,06,30,04,51,16.40
2016,06,30,04,52,13.60
2016,06,30,04,53,13.90
2016,06,30,04,54,14.60
2016,06,30,04,55,14.10
2016,06,30,04,56,9.10
2016,06,30,04,57,12.10
2016,06,30,04,58,14.50
2016,06,30,04,59,18.10
2016,06,30,05,00,16.80
2016,06,30,05,01,11.80
2016,06,30,05,02,11.30
2016,06,30,05,03,14.50
2016,06,30,05,04,13.70
2016,06,30,05,05,15.20
2016,06,30,05,06,15.70
2016,06,30,05,07,11.20
2016,06,30,05,08,10.60
2016,06,30,05,09,14.90
2016,06,30,05,10,13.00
2016,06,30,05,11,12.60
2016,06,30,05,12,13.70
2016,06,30,05,13,13.70
2016,06,30,05,14,17.80
2016,06,30,05,15,13.40
2016,06,30,05,16,15.70
2016,06,30,05,17,13.30
2016,06,30,05,18,11.20
2016,06,30,05,19,12.30
2016,06,30,05,20,12.80
2016,06,30,05,21,12.60
2016,06,30,05,22,16.70
2016,06,30,05,23,12.40
2016,06,30,05,24,9.80
2016,06,30,05,25,7.80
2016,06,30,05,26,10.30
2016,06,30,05,27,14.60
2016,06,30,05,28,13.50
2016,06,30,05,29,12.20
2016,06,30,05,30,18.30
2016,06,30,05,31,12.80
2016,06,30,05,32,13.40
2016,06,30,05,33,12.90
2016,06,30,05,34,18.90
2016,06,30,05,35,11.60
2016,06,30,05,36,9.70
2016,06,30,05,37,11.70
2016,06,30,05,38,13.30
2016,06,30,05,39,10.40
2016,06,30,05,40,13.50
2016,06,30,05,41,12.60
2016,06,30,05,42,8.50
2016,06,30,05,43,12.30
2016,06,30,05,44,13.40
2016,06,30,05,45,9.30
2016,06,30,05,46,10.30
2016,06,30,05,47,14.60
2016,06,30,05,48,11.10
2016,06,30,05,49,10.10
2016,06,30,05,50,10.10
2016,06,30,05,51,13.20
2016,06,30,05,52,11.80
2016,06,30,05,53,9.20
2016,06,30,05,54,10.90
2016,06,30,05,55,12.30
2016,06,30,05,56,10.00
2016,06,30,05,57,9.50
2016,06,30,05,58,13.70
2016,06,30,05,59,10.90
2016,06,30,06,00,11.30
2016,06,30,06,01,10.30
2016,06,30,06,02,16.70
2016,06,30,06,03,8.80
2016,06,30,06,04,9.70
2016,06,30,06,05,12.40
2016,06,30,06,06,8.80
2016,06,30,06,07,12.50
2016,06,30,06,08,12.60
2016,06,30,06,09,9.50
2016,06,30,06,10,10.70
2016,06,30,06,11,15.40
2016,06,30,06,12,15.60
2016,06,30,06,13,10.30
2016,06,30,06,14,11.20
2016,06,30,06,15,11.80
2016,06,30,06,16,16.00
2016,06,30,06,17,13.00
2016,06,30,06,18,11.10
2016,06,30,06,19,13.80
2016,06,30,06,20,11.80
2016,06,30,06,21,12.70
2016,06,30,06,22,12.10
2016,06,30,06,23,14.40
2016,06,30,06,24,15.30
2016,06,30,06,25,15.00
2016,06,30,06,26,13.90
2016,06,30,06,27,11.90
2016,06,30,06,28,12.60
2016,06,30,06,29,16.70
2016,06,30,06,30,14.90
2016,06,30,06,31,16.00
2016,06,30,06,32,14.10
2016,06,30,06,33,18.20
2016,06,30,06,34,15.40
2016,06,30,06,35,14.50
2016,06,30,06,36,13.30
2016,06,30,06,37,13.10
2016,06,30,06,38,13.40
2016,06,30,06,39,15.20
2016,06,30,06,40,14.20
2016,06,30,06,41,14.60
2016,06,30,06,42,16.30
2016,06,30,06,43,12.90
2016,06,30,06,44,12.10
2016,06,30,06,45,14.60
2016,06,30,06,46,11.40
2016,06,30,06,47,11.00
2016,06,30,06,48,13.80
2016,06,30,06,49,11.90
2016,06,30,06,50,13.80
2016,06,30,06,51,12.20
2016,06,30,06,52,15.30
2016,06,30,06,53,14.20
2016,06,30,06,54,15.40
2016,06,30,06,55,14.20
2016,06,30,06,56,13.20
2016,06,30,06,57,12.30
2016,06,30,06,58,14.00
2016,06,30,06,59,11.50
2016,06,30,07,00,11.60
2016,06,30,07,01,13.00
2016,06,30,07,02,16.50
2016,06,30,07,03,13.60
2016,06,30,07,04,10.90
2016,06,30,07,05,11.30
2016,06,30,07,06,12.80
2016,06,30,07,07,13.10
2016,06,30,07,08,11.20
2016,06,30,07,09,10.40
2016,06,30,07,10,12.70
2016,06,30,07,11,17.70
2016,06,30,07,12,14.20
2016,06,30,07,13,12.30
2016,06,30,07,14,15.10
2016,06,30,07,15,11.40
2016,06,30,07,16,12.00
2016,06,30,07,17,16.30
2016,06,30,07,18,16.90
2016,06,30,07,19,15.00
2016,06,30,07,20,12.50
2016,06,30,07,21,15.50
2016,06,30,07,22,15.20
2016,06,30,07,23,12.60
2016,06,30,07,24,11.30
2016,06,30,07,25,12.20
2016,06,30,07,26,13.80
2016,06,30,07,27,9.00
2016,06,30,07,28,11.30
2016,06,30,07,29,13.30
2016,06,30,07,30,14.60
2016,06,30,07,31,15.40
2016,06,30,07,32,14.10
2016,06,30,07,33,15.70
2016,06,30,07,34,16.60
2016,06,30,07,35,14.60
2016,06,30,07,36,14.90
2016,06,30,07,37,14.80
2016,06,30,07,38,13.70
2016,06,30,07,39,12.00
2016,06,30,07,40,13.30
2016,06,30,07,41,13.80
2016,06,30,07,42,17.10
2016,06,30,07,43,15.80
2016,06,30,07,44,16.20
2016,06,30,07,45,13.00
2016,06,30,07,46,13.20
2016,06,30,07,47,13.80
2016,06,30,07,48,16.00
2016,06,30,07,49,10.00
2016,06,30,07,50,15.00
2016,06,30,07,51,12.40
2016,06,30,07,52,10.90
2016,06,30,07,53,14.60
2016,06,30,07,54,14.70
2016,06,30,07,55,11.70
2016,06,30,07,56,11.60
2016,06,30,07,57,13.70
2016,06,30,07,58,12.60
2016,06,30,07,59,10.10
2016,06,30,08,00,12.90
2016,06,30,08,01,12.50
2016,06,30,08,02,11.40
2016,06,30,08,03,13.80
2016,06,30,08,04,14.50
2016,06,30,08,05,11.70
2016,06,30,08,06,10.20
2016,06,30,08,07,11.60
2016,06,30,08,08,9.50
2016,06,30,08,09,16.00
2016,06,30,08,10,13.00
2016,06,30,08,11,15.80
2016,06,30,08,12,12.80
2016,06,30,08,13,16.30
2016,06,30,08,14,16.70
2016,06,30,08,15,14.50
2016,06,30,08,16,16.60
2016,06,30,08,17,13.30
2016,06,30,08,18,16.40
2016,06,30,08,19,13.60
2016,06,30,08,20,16.70
2016,06,30,08,21,13.30
2016,06,30,08,22,12.70
2016,06,30,08,23,11.30
2016,06,30,08,24,11.50
2016,06,30,08,25,13.70
2016,06,30,08,26,15.90
2016,06,30,08,27,16.00
2016,06,30,08,28,16.70
2016,06,30,08,29,16.10
2016,06,30,08,30,11.30
2016,06,30,08,31,13.80
2016,06,30,08,32,13.50
2016,06,30,08,33,15.50
2016,06,30,08,34,12.10
2016,06,30,08,35,13.50
2016,06,30,08,36,15.90
2016,06,30,08,37,14.10
2016,06,30,08,38,11.10
2016,06,30,08,39,12.60
2016,06,30,08,40,14.20
2016,06,30,08,41,11.60
2016,06,30,08,42,14.60
2016,06,30,08,43,11.30
2016,06,30,08,44,14.60
2016,06,30,08,45,13.10
2016,06,30,08,46,13.00
2016,06,30,08,47,12.20
2016,06,30,08,48,18.40
2016,06,30,08,49,13.60
2016,06,30,08,50,12.30
2016,06,30,08,51,6.80
2016,06,30,08,52,9.50
2016,06,30,08,53,18.00
2016,06,30,08,54,15.30
2016,06,30,08,55,15.40
2016,06,30,08,56,10.80
2016,06,30,08,57,14.20
2016,06,30,08,58,11.90
2016,06,30,08,59,11.20
2016,06,30,09,00,13.00
2016,06,30,09,01,15.20
2016,06,30,09,02,10.00
2016,06,30,09,03,9.50
2016,06,30,09,04,10.50
2016,06,30,09,05,9.90
2016,06,30,09,06,14.80
2016,06,30,09,07,14.00
2016,06,30,09,08,14.80
2016,06,30,09,09,15.20
2016,06,30,09,10,12.20
2016,06,30,09,11,12.00
2016,06,30,09,12,17.40
2016,06,30,09,13,11.30
2016,06,30,09,14,9.60
2016,06,30,09,15,12.90
2016,06,30,09,16,14.50
2016,06,30,09,17,13.90
2016,06,30,09,18,14.30
2016,06,30,09,19,12.50
2016,06,30,09,20,13.50
2016,06,30,09,21,12.60
2016,06,30,09,22,12.60
2016,06,30,09,23,8.00
2016,06,30,09,24,9.10
2016,06,30,09,25,8.80
2016,06,30,09,26,10.00
2016,06,30,09,27,10.50
2016,06,30,09,28,12.60
2016,06,30,09,29,10.20
2016,06,30,09,30,10.40
2016,06,30,09,31,13.80
2016,06,30,09,32,10.40
2016,06,30,09,33,13.70
2016,06,30,09,34,12.80
2016,06,30,09,35,14.10
2016,06,30,09,36,9.10
2016,06,30,09,37,10.60
2016,06,30,09,38,9.50
2016,06,30,09,39,12.60
2016,06,30,09,40,11.80
2016,06,30,09,41,11.30
2016,06,30,09,42,12.60
2016,06,30,09,43,11.20
2016,06,30,09,44,12.90
2016,06,30,09,45,8.10
2016,06,30,09,46,8.30
2016,06,30,09,47,8.20
2016,06,30,09,48,9.70
2016,06,30,09,49,9.70
2016,06,30,09,50,10.20
2016,06,30,09,51,9.40
2016,06,30,09,52,8.10
2016,06,30,09,53,6.40
2016,06,30,09,54,8.10
2016,06,30,09,55,9.30
2016,06,30,09,56,12.30
2016,06,30,09,57,12.00
2016,06,30,09,58,10.40
2016,06,30,09,59,9.30
2016,06,30,10,00,8.90
2016,06,30,10,01,9.20
2016,06,30,10,02,11.80
2016,06,30,10,03,10.90
2016,06,30,10,04,8.70
2016,06,30,10,05,6.50
2016,06,30,10,06,9.50
2016,06,30,10,07,14.40
2016,06,30,10,08,12.60
2016,06,30,10,09,10.90
2016,06,30,10,10,10.70
2016,06,30,10,11,11.20
2016,06,30,10,12,10.00
2016,06,30,10,13,12.50
2016,06,30,10,14,12.70
2016,06,30,10,15,12.30
2016,06,30,10,16,12.60
2016,06,30,10,17,10.40
2016,06,30,10,18,13.60
2016,06,30,10,19,12.30
2016,06,30,10,20,9.60
2016,06,30,10,21,15.10
2016,06,30,10,22,12.60
2016,06,30,10,23,11.90
2016,06,30,10,24,8.40
2016,06,30,10,25,10.20
2016,06,30,10,26,10.40
2016,06,30,10,27,11.50
2016,06,30,10,28,11.80
2016,06,30,10,29,11.60
2016,06,30,10,30,13.40
2016,06,30,10,31,11.40
2016,06,30,10,32,14.00
2016,06,30,10,33,9.50
2016,06,30,10,34,8.30
2016,06,30,10,35,6.90
2016,06,30,10,36,9.40
2016,06,30,10,37,10.50
2016,06,30,10,38,11.70
2016,06,30,10,39,10.10
2016,06,30,10,40,8.10
2016,06,30,10,41,9.70
2016,06,30,10,42,11.20
2016,06,30,10,43,8.60
2016,06,30,10,44,7.70
2016,06,30,10,45,6.90
2016,06,30,10,46,7.70
2016,06,30,10,47,11.60
2016,06,30,10,48,10.80
2016,06,30,10,49,7.60
2016,06,30,10,50,6.70
2016,06,30,10,51,7.60
2016,06,30,10,52,7.40
2016,06,30,10,53,12.30
2016,06,30,10,54,11.80
2016,06,30,10,55,9.20
2016,06,30,10,56,9.40
2016,06,30,10,57,6.70
2016,06,30,10,58,5.50
2016,06,30,10,59,6.20
2016,06,30,11,00,3.60
2016,06,30,11,01,9.00
2016,06,30,11,02,8.50
2016,06,30,11,03,10.00
2016,06,30,11,04,11.00
2016,06,30,11,05,10.30
2016,06,30,11,06,6.60
2016,06,30,11,07,7.70
2016,06,30,11,08,8.50
2016,06,30,11,09,5.10
2016,06,30,11,10,10.40
2016,06,30,11,11,3.30
2016,06,30,11,12,7.60
2016,06,30,11,13,7.30
2016,06,30,11,14,8.50
2016,06,30,11,15,8.10
2016,06,30,11,16,9.30
2016,06,30,11,17,4.70
2016,06,30,11,18,6.10
2016,06,30,11,19,2.10
2016,06,30,11,20,7.70
2016,06,30,11,21,12.20
2016,06,30,11,22,9.20
2016,06,30,11,23,5.30
2016,06,30,11,24,6.70
2016,06,30,11,25,7.70
2016,06,30,11,26,9.00
2016,06,30,11,27,7.70
2016,06,30,11,28,8.80
2016,06,30,11,29,5.50
2016,06,30,11,30,8.00
2016,06,30,11,31,8.60
2016,06,30,11,32,6.80
2016,06,30,11,33,7.20
2016,06,30,11,34,10.30
2016,06,30,11,35,8.80
2016,06,30,11,36,9.50
2016,06,30,11,37,9.70
2016,06,30,11,38,9.50
2016,06,30,11,39,9.50
2016,06,30,11,40,11.20
2016,06,30,11,41,10.50
2016,06,30,11,42,6.40
2016,06,30,11,43,8.00
2016,06,30,11,44,11.80
2016,06,30,11,45,10.00
2016,06,30,11,46,12.10
2016,06,30,11,47,11.00
2016,06,30,11,48,11.00
2016,06,30,11,49,9.70
2016,06,30,11,50,11.30
2016,06,30,11,51,9.40
2016,06,30,11,52,8.00
2016,06,30,11,53,10.00
2016,06,30,11,54,8.80
2016,06,30,11,55,9.80
2016,06,30,11,56,10.30
2016,06,30,11,57,10.90
2016,06,30,11,58,11.50
2016,06,30,11,59,10.60
2016,06,30,12,00,3.60
2016,06,30,12,01,12.30
2016,06,30,12,02,7.20
2016,06,30,12,03,10.60
2016,06,30,12,04,11.00
2016,06,30,12,05,9.40
2016,06,30,12,06,9.20
2016,06,30,12,07,9.40
2016,06,30,12,08,9.00
2016,06,30,12,09,9.70
2016,06,30,12,10,13.00
2016,06,30,12,11,8.90
2016,06,30,12,12,9.60
2016,06,30,12,13,10.80
2016,06,30,12,14,9.10
2016,06,30,12,15,10.90
2016,06,30,12,16,12.00
2016,06,30,12,17,8.90
2016,06,30,12,18,6.60
2016,06,30,12,19,9.00
2016,06,30,12,20,6.70
2016,06,30,12,21,12.10
2016,06,30,12,22,11.10
2016,06,30,12,23,8.20
2016,06,30,12,24,8.50
2016,06,30,12,25,7.70
2016,06,30,12,26,10.60
2016,06,30,12,27,11.90
2016,06,30,12,28,7.60
2016,06,30,12,29,7.80
2016,06,30,12,30,2.60
2016,06,30,12,31,9.30
2016,06,30,12,32,6.20
2016,06,30,12,33,10.10
2016,06,30,12,34,7.80
2016,06,30,12,35,8.90
2016,06,30,12,36,8.20
2016,06,30,12,37,7.70
2016,06,30,12,38,5.90
2016,06,30,12,39,6.90
2016,06,30,12,40,9.30
2016,06,30,12,41,8.50
2016,06,30,12,42,12.10
2016,06,30,12,43,9.90
2016,06,30,12,44,11.40
2016,06,30,12,45,10.50
2016,06,30,12,46,12.30
2016,06,30,12,47,7.30
2016,06,30,12,48,7.80
2016,06,30,12,49,9.80
2016,06,30,12,50,7.60
2016,06,30,12,51,12.70
2016,06,30,12,52,8.50
2016,06,30,12,53,9.60
2016,06,30,12,54,10.70
2016,06,30,12,55,13.20
2016,06,30,12,56,11.40
2016,06,30,12,57,11.30
2016,06,30,12,58,12.00
2016,06,30,12,59,11.00
2016,06,30,13,00,9.70
2016,06,30,13,01,10.70
2016,06,30,13,02,9.30
2016,06,30,13,03,9.70
2016,06,30,13,04,11.60
2016,06,30,13,05,11.70
2016,06,30,13,06,7.70
2016,06,30,13,07,9.70
2016,06,30,13,08,14.10
2016,06,30,13,09,9.70
2016,06,30,13,10,6.30
2016,06,30,13,11,10.90
2016,06,30,13,12,10.80
2016,06,30,13,13,11.80
2016,06,30,13,14,8.30
2016,06,30,13,15,9.30
2016,06,30,13,16,11.00
2016,06,30,13,17,8.60
2016,06,30,13,18,9.00
2016,06,30,13,19,11.80
2016,06,30,13,20,11.00
2016,06,30,13,21,10.70
2016,06,30,13,22,8.30
2016,06,30,13,23,8.60
2016,06,30,13,24,12.80
2016,06,30,13,25,12.30
2016,06,30,13,26,12.10
2016,06,30,13,27,9.70
2016,06,30,13,28,10.50
2016,06,30,13,29,11.10
2016,06,30,13,30,15.30
2016,06,30,13,31,12.00
2016,06,30,13,32,13.10
2016,06,30,13,33,13.20
2016,06,30,13,34,14.80
2016,06,30,13,35,12.30
2016,06,30,13,36,10.90
2016,06,30,13,37,12.70
2016,06,30,13,38,10.60
2016,06,30,13,39,11.70
2016,06,30,13,40,8.20
2016,06,30,13,41,8.50
2016,06,30,13,42,14.10
2016,06,30,13,43,8.90
2016,06,30,13,44,7.90
2016,06,30,13,45,11.30
2016,06,30,13,46,13.60
2016,06,30,13,47,11.50
2016,06,30,13,48,13.00
2016,06,30,13,49,12.50
2016,06,30,13,50,10.90
2016,06,30,13,51,15.00
2016,06,30,13,52,10.40
2016,06,30,13,53,10.10
2016,06,30,13,54,11.70
2016,06,30,13,55,7.20
2016,06,30,13,56,8.50
2016,06,30,13,57,9.90
2016,06,30,13,58,8.20
2016,06,30,13,59,7.50
2016,06,30,14,00,7.90
2016,06,30,14,01,8.90
2016,06,30,14,02,9.70
2016,06,30,14,03,5.80
2016,06,30,14,04,11.30
2016,06,30,14,05,9.00
2016,06,30,14,06,8.40
2016,06,30,14,07,8.70
2016,06,30,14,08,6.70
2016,06,30,14,09,7.40
2016,06,30,14,10,8.70
2016,06,30,14,11,6.90
2016,06,30,14,12,7.80
2016,06,30,14,13,5.30
2016,06,30,14,14,3.10
2016,06,30,14,15,6.50
2016,06,30,14,16,7.60
2016,06,30,14,17,7.60
2016,06,30,14,18,8.40
2016,06,30,14,19,9.20
2016,06,30,14,20,7.60
2016,06,30,14,21,4.10
2016,06,30,14,22,6.30
2016,06,30,14,23,10.10
2016,06,30,14,24,4.00
2016,06,30,14,25,5.10
2016,06,30,14,26,4.80
2016,06,30,14,27,7.60
2016,06,30,14,28,9.30
2016,06,30,14,29,10.30
2016,06,30,14,30,9.10
2016,06,30,14,31,9.30
2016,06,30,14,32,11.60
2016,06,30,14,33,8.10
2016,06,30,14,34,11.70
2016,06,30,14,35,9.80
2016,06,30,14,36,11.90
2016,06,30,14,37,6.80
2016,06,30,14,38,5.30
2016,06,30,14,39,8.20
2016,06,30,14,40,6.40
2016,06,30,14,41,6.60
2016,06,30,14,42,6.90
2016,06,30,14,43,9.20
2016,06,30,14,44,10.80
2016,06,30,14,45,10.00
2016,06,30,14,46,10.30
2016,06,30,14,47,12.60
2016,06,30,14,48,11.60
2016,06,30,14,49,12.70
2016,06,30,14,50,8.00
2016,06,30,14,51,9.00
2016,06,30,14,52,11.60
2016,06,30,14,53,10.80
2016,06,30,14,54,9.30
2016,06,30,14,55,9.80
2016,06,30,14,56,11.20
2016,06,30,14,57,13.20
2016,06,30,14,58,12.30
2016,06,30,14,59,8.80
2016,06,30,15,00,10.60
2016,06,30,15,01,5.90
2016,06,30,15,02,5.90
2016,06,30,15,03,9.40
2016,06,30,15,04,10.10
2016,06,30,15,05,10.30
2016,06,30,15,06,9.10
2016,06,30,15,07,9.20
2016,06,30,15,08,7.40
2016,06,30,15,09,12.00
2016,06,30,15,10,9.40
2016,06,30,15,11,8.20
2016,06,30,15,12,12.60
2016,06,30,15,13,8.90
2016,06,30,15,14,9.20
2016,06,30,15,15,7.60
2016,06,30,15,16,8.30
2016,06,30,15,17,12.30
2016,06,30,15,18,11.20
2016,06,30,15,19,10.00
2016,06,30,15,20,7.20
2016,06,30,15,21,9.00
2016,06,30,15,22,6.70
2016,06,30,15,23,5.80
2016,06,30,15,24,9.20
2016,06,30,15,25,9.10
2016,06,30,15,26,8.90
2016,06,30,15,27,7.20
2016,06,30,15,28,7.60
2016,06,30,15,29,12.20
2016,06,30,15,30,8.90
2016,06,30,15,31,7.20
2016,06,30,15,32,8.90
2016,06,30,15,33,7.40
2016,06,30,15,34,9.70
2016,06,30,15,35,11.80
2016,06,30,15,36,10.50
2016,06,30,15,37,7.00
2016,06,30,15,38,9.00
2016,06,30,15,39,7.10
2016,06,30,15,40,9.90
2016,06,30,15,41,10.00
2016,06,30,15,42,5.60
2016,06,30,15,43,8.20
2016,06,30,15,44,6.60
2016,06,30,15,45,3.90
2016,06,30,15,46,7.80
2016,06,30,15,47,3.30
2016,06,30,15,48,4.00
2016,06,30,15,49,5.20
2016,06,30,15,50,2.80
2016,06,30,15,51,1.20
2016,06,30,15,52,3.20
2016,06,30,15,53,0.50
2016,06,30,15,54,6.80
2016,06,30,15,55,5.80
2016,06,30,15,56,8.00
2016,06,30,15,57,7.40
2016,06,30,15,58,7.00
2016,06,30,15,59,12.20
2016,06,30,16,00,8.70
2016,06,30,16,01,10.50
2016,06,30,16,02,7.40
2016,06,30,16,03,6.80
2016,06,30,16,04,7.30
2016,06,30,16,05,8.60
2016,06,30,16,06,9.90
2016,06,30,16,07,6.60
2016,06,30,16,08,8.10
2016,06,30,16,09,12.80
2016,06,30,16,10,8.10
2016,06,30,16,11,6.10
2016,06,30,16,12,6.90
2016,06,30,16,13,4.80
2016,06,30,16,14,6.90
2016,06,30,16,15,7.20
2016,06,30,16,16,3.70
2016,06,30,16,17,8.30
2016,06,30,16,18,4.50
2016,06,30,16,19,7.50
2016,06,30,16,20,8.10
2016,06,30,16,21,9.60
2016,06,30,16,22,10.00
2016,06,30,16,23,8.70
2016,06,30,16,24,9.60
2016,06,30,16,25,10.10
2016,06,30,16,26,6.10
2016,06,30,16,27,2.50
2016,06,30,16,28,5.00
2016,06,30,16,29,10.30
2016,06,30,16,30,8.00
2016,06,30,16,31,1.30
2016,06,30,16,32,5.50
2016,06,30,16,33,4.20
2016,06,30,16,34,2.20
2016,06,30,16,35,4.40
2016,06,30,16,36,3.10
2016,06,30,16,37,3.70
2016,06,30,16,38,7.60
2016,06,30,16,39,5.20
2016,06,30,16,40,9.50
2016,06,30,16,41,9.70
2016,06,30,16,42,7.80
2016,06,30,16,43,5.60
2016,06,30,16,44,7.70
2016,06,30,16,45,7.00
2016,06,30,16,46,9.70
2016,06,30,16,47,7.30
2016,06,30,16,48,4.40
2016,06,30,16,49,7.70
2016,06,30,16,50,7.00
2016,06,30,16,51,5.10
2016,06,30,16,52,6.70
2016,06,30,16,53,9.40
2016,06,30,16,54,8.30
2016,06,30,16,55,7.10
2016,06,30,16,56,6.30
2016,06,30,16,57,5.80
2016,06,30,16,58,7.40
2016,06,30,16,59,6.90
2016,06,30,17,00,11.70
2016,06,30,17,01,9.50
2016,06,30,17,02,6.80
2016,06,30,17,03,6.90
2016,06,30,17,04,2.60
2016,06,30,17,05,7.90
2016,06,30,17,06,9.20
2016,06,30,17,07,4.70
2016,06,30,17,08,9.60
2016,06,30,17,09,10.00
2016,06,30,17,10,13.00
2016,06,30,17,11,10.20
2016,06,30,17,12,7.60
2016,06,30,17,13,9.80
2016,06,30,17,14,8.20
2016,06,30,17,15,8.00
2016,06,30,17,16,9.40
2016,06,30,17,17,9.50
2016,06,30,17,18,8.80
2016,06,30,17,19,1.50
2016,06,30,17,20,5.80
2016,06,30,17,21,5.90
2016,06,30,17,22,3.90
2016,06,30,17,23,5.10
2016,06,30,17,24,5.60
2016,06,30,17,25,6.40
2016,06,30,17,26,10.40
2016,06,30,17,27,8.30
2016,06,30,17,28,6.10
2016,06,30,17,29,8.40
2016,06,30,17,30,8.00
2016,06,30,17,31,5.00
2016,06,30,17,32,11.20
2016,06,30,17,33,7.80
2016,06,30,17,34,10.80
2016,06,30,17,35,7.50